This is the latest recevied weather packets stored in our database for station/object KE8RXN. If no packets are shown the sender has not sent any weather packets the latest 10 day(s).
| Time | Temp. | Humidity | Pressure | Rain* | Wind** | Luminosity | Snow |
|---|---|---|---|---|---|---|---|
| 1777823018 | 11.67° C | 57% | 1015.6 hPa | 0 mm | - | 245 W/m² | - |
| 1777822716 | 11.67° C | 57% | 1015.6 hPa | 0 mm | - | 143 W/m² | - |
| 1777822413 | 11.67° C | 57% | 1015.6 hPa | 0 mm | - | 159 W/m² | - |
| 1777822111 | 11.67° C | 56% | 1015.7 hPa | 0 mm | - | 210 W/m² | - |
| 1777821808 | 11.67° C | 57% | 1015.7 hPa | 0 mm | - | 265 W/m² | - |
| 1777821505 | 11.67° C | 57% | 1015.6 hPa | 0 mm | - | 159 W/m² | - |
| 1777821203 | 11.67° C | 56% | 1015.6 hPa | 0 mm | - | 169 W/m² | - |
| 1777820900 | 11.67° C | 57% | 1015.8 hPa | 0 mm | - | 214 W/m² | - |
| 1777820596 | 11.67° C | 57% | 1015.5 hPa | 0 mm | - | 184 W/m² | - |
| 1777820293 | 11.67° C | 57% | 1015.6 hPa | 0 mm | - | 167 W/m² | - |
| 1777819990 | 11.67° C | 56% | 1015.3 hPa | 0 mm | - | 121 W/m² | - |
| 1777819687 | 12.22° C | 55% | 1015.3 hPa | 0 mm | - | 303 W/m² | - |
| 1777819386 | 12.22° C | 56% | 1015.2 hPa | 0 mm | - | 248 W/m² | - |
| 1777819083 | 11.67° C | 55% | 1015.2 hPa | 0 mm | - | 619 W/m² | - |
| 1777818779 | 11.67° C | 57% | 1015.2 hPa | 0 mm | - | 271 W/m² | - |
| 1777818475 | 11.67° C | 56% | 1015.1 hPa | 0 mm | - | 308 W/m² | - |
| 1777818172 | 11.11° C | 56% | 1015.4 hPa | 0 mm | - | 590 W/m² | - |
| 1777817868 | 11.11° C | 57% | 1015.4 hPa | 0 mm | - | 399 W/m² | - |
| 1777817567 | 11.11° C | 56% | 1015.5 hPa | 0 mm | - | 394 W/m² | - |
| 1777817263 | 10.56° C | 57% | 1015.6 hPa | 0 mm | - | 565 W/m² | - |
| 1777816960 | 10.56° C | 59% | 1015.7 hPa | 0 mm | - | 177 W/m² | - |
| 1777816656 | 10.56° C | 58% | 1015.6 hPa | 0 mm | - | 137 W/m² | - |
| 1777816353 | 10.56° C | 58% | 1015.7 hPa | 0 mm | - | 108 W/m² | - |
| 1777816051 | 10.56° C | 58% | 1015.8 hPa | 0 mm | - | 108 W/m² | - |
| 1777815748 | 10.56° C | 58% | 1015.8 hPa | 0 mm | - | 170 W/m² | - |
* Rain latest hour (hover to see other rain measurements)
** Current wind speed in m/s (hover to see current wind gust speed)